IZ7XUV Weather Reports


time (UTC)temp
F
wind
direction
speed
knots
gust
knots
rain 1hr
in
rain 24hr
in
rain mn
in
humidity
%
barometer
mb
20260507170056 70 127 3.5 7.8 0.00 0.38 0.38 39 1014.3
20260507165026 70 145 2.6 8.7 0.00 0.38 0.38 39 1014.4
20260507164016 71 129 4.3 7.8 0.00 0.38 0.38 38 1014.4
20260507163107 71 153 5.2 8.7 0.00 0.38 0.38 38 1014.4
20260507162057 72 139 2.6 6.1 0.00 0.38 0.38 40 1014.4
20260507161107 72 105 2.6 5.2 0.00 0.38 0.38 40 1014.4
20260507160037 72 168 2.6 6.1 0.00 0.38 0.38 37 1014.4
20260507155027 72 147 3.5 7.0 0.00 0.38 0.38 36 1014.4
20260507154017 73 149 3.5 7.8 0.00 0.38 0.38 36 1014.3
20260507153108 73 160 5.2 7.8 0.00 0.38 0.38 35 1014.3
20260507152058 73 175 2.6 7.0 0.00 0.38 0.38 37 1014.2
20260507151048 73 142 2.6 7.0 0.00 0.38 0.38 36 1014.3
20260507150037 73 145 3.5 7.8 0.00 0.38 0.38 39 1014.3
20260507145028 73 146 4.3 7.8 0.00 0.38 0.38 40 1014.4
20260507144037 73 161 2.6 6.1 0.00 0.38 0.38 40 1014.4
20260507143109 73 188 2.6 9.6 0.00 0.38 0.38 40 1014.5
20260507142059 73 173 7.0 12.2 0.00 0.38 0.38 39 1014.6
20260507141048 74 166 3.5 9.6 0.00 0.38 0.38 41 1014.4
20260507140039 74 151 8.7 14.8 0.00 0.38 0.38 41 1014.4
20260507135029 74 147 4.3 9.6 0.00 0.38 0.38 45 1014.3
20260507134018 74 135 3.5 6.1 0.00 0.38 0.38 46 1014.7
20260507133110 74 140 5.2 11.3 0.00 0.38 0.38 47 1014.5
20260507132120 74 112 5.2 12.2 0.00 0.38 0.38 50 1014.6
20260507131050 74 161 6.1 12.2 0.00 0.38 0.38 53 1014.5
20260507130040 73 149 4.3 8.7 0.00 0.38 0.38 56 1014.8
20260507125030 74 194 4.3 8.7 0.00 0.38 0.38 57 1014.8
20260507124020 74 164 3.5 9.6 0.00 0.38 0.38 58 1015.1
20260507123152 74 211 4.3 8.7 0.00 0.38 0.38 61 1014.9
20260507122101 74 132 5.2 11.3 0.00 0.38 0.38 60 1015.0
20260507121051 73 194 4.3 9.6 0.00 0.38 0.38 60 1014.9
20260507120041 74 191 4.3 11.3 0.00 0.38 0.38 59 1015.1
20260507115031 73 185 7.0 13.9 0.00 0.38 0.38 60 1015.1
20260507114021 73 185 6.1 13.0 0.00 0.38 0.38 61 1015.0
20260507113113 73 189 6.1 14.8 0.00 0.38 0.38 61 1015.2
20260507112102 72 192 5.2 12.2 0.00 0.38 0.38 62 1015.4
20260507111052 72 243 4.3 9.6 0.00 0.38 0.38 63 1015.4
20260507105032 72 123 2.6 13.0 0.00 0.38 0.38 63 1015.2
20260507104022 71 151 8.7 14.8 0.00 0.38 0.38 64 1015.3
20260507102527 71 139 7.8 18.2 0.00 0.38 0.38 66 1015.3
20260507101517 71 187 10.4 21.7 0.00 0.38 0.38 67 1015.5
20260507100609 70 194 7.8 16.5 0.00 0.38 0.38 68 1015.5
20260507095619 70 168 7.8 19.1 0.00 0.38 0.38 70 1015.5
20260507094549 69 186 11.3 20.0 0.00 0.38 0.38 71 1015.5
20260507093539 69 195 7.8 18.2 0.00 0.38 0.38 73 1015.4
20260507092528 69 191 7.8 20.9 0.00 0.38 0.38 73 1015.2
20260507091518 69 174 7.8 20.0 0.00 0.38 0.38 74 1015.0
20260507090610 68 173 7.8 18.2 0.00 0.38 0.38 75 1014.7
20260507085600 68 185 8.7 15.6 0.00 0.38 0.38 76 1014.5
20260507084549 67 175 8.7 20.9 0.00 0.38 0.38 77 1014.5
20260507083559 66 176 8.7 18.2 0.00 0.38 0.38 79 1014.4
20260507082550 66 151 7.0 14.8 0.00 0.38 0.38 79 1014.5
20260507081519 65 187 7.8 15.6 0.00 0.38 0.38 80 1014.4
20260507080610 65 177 9.6 15.6 0.00 0.38 0.38 80 1014.7
20260507075601 65 169 7.0 13.0 0.00 0.38 0.38 81 1014.8
20260507074551 65 169 7.0 15.6 0.00 0.38 0.38 81 1015.0
20260507073601 64 164 6.1 13.9 0.00 0.38 0.38 81 1015.1
20260507072530 64 184 6.1 16.5 0.00 0.38 0.38 82 1015.3
20260507071521 63 168 6.1 13.0 0.00 0.38 0.38 84 1015.5
20260507070631 62 130 4.3 9.6 0.00 0.38 0.38 87 1015.6
20260507065601 62 141 4.3 11.3 0.00 0.38 0.38 90 1015.5
20260507064551 61 113 4.3 8.7 0.00 0.38 0.38 91 1015.2
20260507063601 61 135 5.2 11.3 0.01 0.38 0.38 92 1015.2
20260507062531 61 135 7.0 14.8 0.01 0.38 0.38 93 1015.3
20260507061522 61 136 5.2 13.0 0.02 0.38 0.38 93 1015.4
20260507060612 61 140 8.7 14.8 0.02 0.38 0.38 93 1015.6
20260507055603 61 121 7.8 15.6 0.03 0.38 0.38 93 1015.8
20260507054553 61 134 5.2 11.3 0.04 0.38 0.38 93 1016.1
20260507053602 61 147 5.2 9.6 0.03 0.37 0.37 93 1016.1
20260507052532 61 156 4.3 7.0 0.04 0.37 0.37 93 1016.4
20260507051523 61 132 4.3 9.6 0.04 0.36 0.36 93 1016.4
20260507050613 61 133 6.1 9.6 0.05 0.36 0.36 93 1016.5
20260507045603 61 133 2.6 7.0 0.07 0.35 0.35 93 1016.7
20260507044553 61 128 4.3 7.8 0.09 0.34 0.34 93 1016.3
20260507043543 61 159 3.5 7.0 0.13 0.34 0.34 93 1016.2
20260507042533 60 144 1.7 6.1 0.15 0.33 0.33 93 1016.3
20260507041522 60 140 3.5 7.0 0.15 0.32 0.32 93 1016.3
20260507040613 60 137 2.6 5.2 0.16 0.31 0.31 92 1016.4
20260507035604 60 182 2.6 7.8 0.14 0.28 0.28 92 1016.4
20260507034613 60 178 2.6 7.0 0.13 0.25 0.25 92 1016.3
20260507033543 60 180 3.5 7.8 0.11 0.21 0.21 92 1016.4
20260507032534 60 181 3.5 9.6 0.10 0.18 0.18 92 1016.4
20260507031543 60 158 3.5 7.0 0.10 0.17 0.17 92 1016.1
20260507030614 60 181 1.7 5.2 0.09 0.15 0.15 91 1015.8
20260507025604 61 177 1.7 3.5 0.09 0.14 0.14 90 1015.7
20260507024554 61 289 0.0 0.9 0.07 0.12 0.12 90 1015.4
20260507023544 61 262 0.9 2.6 0.06 0.10 0.10 89 1015.5
20260507022534 61 150 1.7 2.6 0.04 0.08 0.08 88 1015.4
20260507021524 61 252 0.0 3.5 0.04 0.07 0.07 88 1015.5
20260507020615 61 139 4.3 7.0 0.03 0.06 0.06 87 1015.2
20260507015605 61 137 3.5 6.1 0.02 0.05 0.05 88 1015.2
20260507014555 61 131 2.6 3.5 0.03 0.05 0.05 88 1015.2
20260507013625 61 178 2.6 5.2 0.03 0.04 0.04 88 1015.1
20260507012535 62 201 0.9 2.6 0.03 0.04 0.04 88 1015.2
20260507011525 62 79 1.7 3.5 0.02 0.03 0.03 88 1015.2
20260507010615 62 95 1.7 3.5 0.03 0.03 0.03 87 1015.1
20260507005606 62 122 3.5 6.1 0.03 0.03 0.03 86 1015.1
20260507004556 62 151 2.6 5.2 0.02 0.02 0.02 86 1015.2
20260507003546 63 117 1.7 5.2 0.01 0.01 0.01 85 1015.1
20260507002536 63 142 0.9 1.7 0.01 0.01 0.01 84 1015.2
20260507001526 63 245 0.0 1.7 0.01 0.01 0.01 82 1015.2
20260507000516 63 218 0.9 2.6 0.00 0.00 0.00 80 1015.1
20260506235607 64 147 0.9 2.6 0.00 0.00 0.00 77 1015.0
20260506234637 64 290 0.0 0.9 0.00 0.00 0.00 74 1014.9
20260506233607 65 246 0.0 0.9 0.00 0.00 0.00 72 1015.0
20260506232537 65 217 1.7 3.5 0.00 0.00 0.00 71 1015.1
20260506231547 65 227 0.9 2.6 0.00 0.00 0.00 69 1015.2
20260506230517 65 225 0.9 3.5 0.00 0.00 0.00 68 1015.0
20260506225608 65 252 2.6 7.0 0.00 0.00 0.00 68 1015.0
20260506224600 65 256 1.7 7.0 0.00 0.00 0.00 68 1015.0
20260506223608 65 227 2.6 6.1 0.00 0.00 0.00 69 1015.0
20260506222538 66 222 2.6 3.5 0.00 0.00 0.00 69 1014.9
20260506221528 65 219 3.5 7.0 0.00 0.00 0.00 71 1015.0
20260506220517 65 259 2.6 9.6 0.00 0.00 0.00 74 1015.0
20260506215610 65 196 5.2 7.8 0.00 0.00 0.00 76 1015.1
20260506214559 65 185 5.2 7.8 0.00 0.00 0.00 76 1015.1
20260506213549 65 165 5.2 8.7 0.00 0.00 0.00 76 1015.2
20260506212539 65 200 6.1 13.0 0.00 0.00 0.00 76 1015.2
20260506211529 65 210 5.2 13.0 0.00 0.00 0.00 76 1015.1
20260506210539 65 193 5.2 14.8 0.00 0.00 0.00 76 1015.0
20260506205611 65 216 6.1 12.2 0.00 0.00 0.00 77 1014.8
20260506204600 65 195 5.2 12.2 0.00 0.00 0.00 77 1014.7
20260506203550 65 195 6.1 9.6 0.00 0.00 0.00 77 1014.7
20260506202540 65 185 5.2 9.6 0.00 0.00 0.00 77 1014.7
20260506201550 64 186 6.1 8.7 0.00 0.00 0.00 77 1014.5
20260506200520 65 179 3.5 11.3 0.00 0.00 0.00 77 1014.5
20260506195631 65 194 3.5 8.7 0.00 0.00 0.00 77 1014.3
20260506194601 65 173 5.2 9.6 0.00 0.00 0.00 76 1014.2
20260506193551 65 191 3.5 7.8 0.00 0.00 0.00 76 1014.0
20260506192541 65 209 4.3 11.3 0.00 0.00 0.00 76 1013.9
20260506191551 65 167 5.2 9.6 0.00 0.00 0.00 76 1014.0
20260506190521 66 180 6.1 11.3 0.00 0.00 0.00 76 1013.9
20260506185612 66 159 3.5 8.7 0.00 0.00 0.00 76 1013.8
20260506184602 66 191 4.3 11.3 0.00 0.00 0.00 76 1013.8
20260506183552 66 168 4.3 9.6 0.00 0.00 0.00 75 1014.0
20260506182542 66 148 5.2 9.6 0.00 0.00 0.00 75 1013.9
20260506181532 66 157 7.8 13.9 0.00 0.00 0.00 75 1013.9
20260506180522 66 171 4.3 12.2 0.00 0.00 0.00 75 1013.9
20260506175613 67 160 5.2 12.2 0.00 0.00 0.00 74 1013.8
20260506174604 67 173 4.3 11.3 0.00 0.00 0.00 73 1013.9
20260506173613 67 163 6.1 13.0 0.00 0.00 0.00 73 1013.8
20260506172543 68 202 4.3 8.7 0.00 0.00 0.00 73 1013.9
20260506171533 68 177 5.2 8.7 0.00 0.00 0.00 72 1013.9
20260506170523 68 169 3.5 8.7 0.00 0.00 0.00 71 1013.9